TKJ507 LTAC-LYBE

Flight info

Callsign TKJ507
Flight time 1h 50m
Altitude 38000
Route YAVRU UA4 ERSEN UL615 BKZ UQ26 DIGBO UL615 VADEN DCT UTEKA DCT OSVIX
Aircraft B38M/M-SDE1FGHILORVWXY/HB1

Departure

Time 2026-05-07 09:59
Airport Esenboğa International Airport (LTAC)

Arrival

Time 2026-05-07 11:50
Airport Belgrade Nikola Tesla Airport (LYBE)
Time Latitude Longitude Altitude Speed Heading
2026-05-07 09:16 40.11558 32.99032 3137 ft 0 kts 138°
2026-05-07 09:46 40.11559 32.99030 3137 ft 1 kts 138°
2026-05-07 09:46 40.11571 32.99016 3137 ft 3 kts 135°
2026-05-07 09:46 40.11585 32.98997 3137 ft 3 kts 131°
2026-05-07 09:47 40.11598 32.98976 3137 ft 3 kts 128°
2026-05-07 09:47 40.11610 32.98956 3137 ft 3 kts 125°
2026-05-07 09:47 40.11620 32.98939 3137 ft 1 kts 125°
2026-05-07 09:50 40.11619 32.98940 3136 ft 1 kts 125°
2026-05-07 09:50 40.11613 32.98962 3136 ft 5 kts 97°
2026-05-07 09:51 40.11643 32.99025 3136 ft 12 kts 57°
2026-05-07 09:51 40.11706 32.99114 3137 ft 14 kts 15°
2026-05-07 09:51 40.11793 32.99062 3137 ft 15 kts 320°
2026-05-07 09:51 40.11884 32.99078 3137 ft 15 kts 36°
2026-05-07 09:52 40.11969 32.99161 3136 ft 16 kts 36°
2026-05-07 09:52 40.12060 32.99247 3136 ft 17 kts 36°
2026-05-07 09:52 40.12157 32.99339 3136 ft 18 kts 36°
2026-05-07 09:52 40.12258 32.99436 3136 ft 18 kts 36°
2026-05-07 09:53 40.12362 32.99535 3136 ft 19 kts 37°
2026-05-07 09:53 40.12472 32.99641 3137 ft 20 kts 36°
2026-05-07 09:53 40.12582 32.99746 3137 ft 20 kts 36°
2026-05-07 09:53 40.12685 32.99843 3137 ft 18 kts 36°
2026-05-07 09:54 40.12788 32.99944 3137 ft 19 kts 37°
2026-05-07 09:54 40.12897 33.00047 3137 ft 20 kts 36°
2026-05-07 09:54 40.13010 33.00154 3136 ft 20 kts 36°
2026-05-07 09:54 40.13127 33.00266 3137 ft 21 kts 38°
2026-05-07 09:55 40.13246 33.00380 3137 ft 22 kts 35°
2026-05-07 09:55 40.13369 33.00496 3137 ft 22 kts 36°
2026-05-07 09:55 40.13494 33.00617 3137 ft 23 kts 36°
2026-05-07 09:55 40.13623 33.00740 3137 ft 23 kts 36°
2026-05-07 09:56 40.13756 33.00868 3137 ft 24 kts 36°
2026-05-07 09:56 40.13893 33.00998 3137 ft 25 kts 36°
2026-05-07 09:56 40.14025 33.01074 3137 ft 20 kts 347°
2026-05-07 09:56 40.14083 33.01026 3138 ft 0 kts 304°
2026-05-07 09:57 40.14083 33.01025 3138 ft 0 kts 303°
2026-05-07 09:57 40.14085 33.01021 3138 ft 1 kts 301°
2026-05-07 09:57 40.14093 33.01003 3138 ft 6 kts 296°
2026-05-07 09:57 40.14123 33.00912 3138 ft 14 kts 300°
2026-05-07 09:58 40.14184 33.00803 3136 ft 16 kts 306°
2026-05-07 09:58 40.14191 33.00672 3135 ft 16 kts 224°
2026-05-07 09:58 40.14097 33.00579 3135 ft 17 kts 217°
2026-05-07 09:58 40.13944 33.00433 3135 ft 54 kts 216°
2026-05-07 09:59 40.13453 32.99967 3136 ft 120 kts 216°
2026-05-07 09:59 40.12624 32.99176 3145 ft 173 kts 216°
2026-05-07 09:59 40.11581 32.98219 3583 ft 192 kts 218°
2026-05-07 09:59 40.10474 32.97149 4399 ft 198 kts 217°
2026-05-07 10:00 40.09352 32.96084 5245 ft 203 kts 217°
2026-05-07 10:00 40.08160 32.94955 5848 ft 222 kts 217°
2026-05-07 10:00 40.06843 32.93712 6411 ft 244 kts 216°
2026-05-07 10:00 40.05438 32.92389 7211 ft 249 kts 216°
2026-05-07 10:01 40.04038 32.91070 8215 ft 251 kts 217°
2026-05-07 10:01 40.02804 32.89396 8907 ft 264 kts 242°
2026-05-07 10:01 40.02293 32.87053 9503 ft 279 kts 270°
2026-05-07 10:01 40.02729 32.84570 10227 ft 286 kts 298°
2026-05-07 10:02 40.03891 32.82418 10923 ft 297 kts 307°
2026-05-07 10:02 40.05157 32.80193 11440 ft 314 kts 306°
2026-05-07 10:02 40.06489 32.77848 11967 ft 328 kts 307°
2026-05-07 10:02 40.07862 32.75440 12607 ft 338 kts 307°
2026-05-07 10:03 40.09267 32.72976 13536 ft 340 kts 307°
2026-05-07 10:03 40.10695 32.70476 14258 ft 346 kts 307°
2026-05-07 10:03 40.12135 32.67950 15079 ft 346 kts 307°
2026-05-07 10:03 40.13578 32.65419 15820 ft 349 kts 307°
2026-05-07 10:04 40.15043 32.62846 16147 ft 353 kts 307°
2026-05-07 10:04 40.16509 32.60268 16169 ft 352 kts 307°
2026-05-07 10:04 40.17972 32.57695 16183 ft 352 kts 307°
2026-05-07 10:04 40.19427 32.55132 16209 ft 352 kts 307°
2026-05-07 10:05 40.20962 32.52646 16191 ft 350 kts 316°
2026-05-07 10:05 40.22746 32.50462 16185 ft 351 kts 317°
2026-05-07 10:05 40.24521 32.48274 16192 ft 351 kts 317°
2026-05-07 10:05 40.26306 32.46072 16188 ft 351 kts 317°
2026-05-07 10:06 40.28062 32.43905 16195 ft 351 kts 317°
2026-05-07 10:06 40.29861 32.41683 16195 ft 351 kts 317°
2026-05-07 10:06 40.31637 32.39487 16192 ft 351 kts 316°
2026-05-07 10:06 40.32817 32.38028 16184 ft 351 kts 316°
2026-05-07 10:07 40.35169 32.35117 16188 ft 351 kts 317°
2026-05-07 10:07 40.36947 32.32916 16182 ft 351 kts 316°
2026-05-07 10:07 40.38718 32.30720 16179 ft 351 kts 316°
2026-05-07 10:07 40.40499 32.28510 16256 ft 354 kts 316°
2026-05-07 10:08 40.41705 32.27012 16810 ft 352 kts 316°
2026-05-07 10:08 40.43486 32.24801 17529 ft 356 kts 317°
2026-05-07 10:08 40.45292 32.22554 18178 ft 359 kts 317°
2026-05-07 10:08 40.47004 32.20148 18786 ft 363 kts 304°
2026-05-07 10:09 40.48120 32.17180 19427 ft 365 kts 293°
2026-05-07 10:09 40.49084 32.14076 19962 ft 369 kts 293°
2026-05-07 10:09 40.50043 32.10940 20542 ft 371 kts 293°
2026-05-07 10:09 40.50991 32.07784 21129 ft 373 kts 293°
2026-05-07 10:10 40.51944 32.04584 21676 ft 376 kts 293°
2026-05-07 10:10 40.52884 32.01411 22236 ft 379 kts 293°
2026-05-07 10:10 40.53852 31.98134 22787 ft 381 kts 293°
2026-05-07 10:10 40.54817 31.94864 23341 ft 384 kts 293°
2026-05-07 10:11 40.55783 31.91582 23842 ft 386 kts 293°
2026-05-07 10:11 40.56756 31.88275 24308 ft 388 kts 293°
2026-05-07 10:11 40.57732 31.84955 24745 ft 390 kts 293°
2026-05-07 10:11 40.58609 31.81572 25191 ft 392 kts 290°
2026-05-07 10:12 40.59444 31.78150 25650 ft 394 kts 290°
2026-05-07 10:12 40.60293 31.74706 26045 ft 396 kts 291°
2026-05-07 10:12 40.61148 31.71261 26475 ft 397 kts 291°
2026-05-07 10:12 40.62008 31.67792 26887 ft 399 kts 291°
2026-05-07 10:13 40.62858 31.64357 27297 ft 401 kts 291°
2026-05-07 10:13 40.63723 31.60862 27714 ft 402 kts 291°
2026-05-07 10:13 40.64588 31.57357 28122 ft 404 kts 291°
2026-05-07 10:13 40.65459 31.53824 28509 ft 406 kts 291°
2026-05-07 10:14 40.66332 31.50282 28931 ft 407 kts 291°
2026-05-07 10:14 40.67208 31.46717 29288 ft 409 kts 291°
2026-05-07 10:14 40.68088 31.43136 29660 ft 411 kts 291°
2026-05-07 10:14 40.68966 31.39550 30036 ft 413 kts 291°
2026-05-07 10:15 40.69850 31.35939 30375 ft 414 kts 291°
2026-05-07 10:15 40.70734 31.32323 30673 ft 416 kts 291°
2026-05-07 10:15 40.71623 31.28679 30952 ft 418 kts 291°
2026-05-07 10:15 40.72515 31.25019 31259 ft 420 kts 291°
2026-05-07 10:16 40.73408 31.21350 31557 ft 421 kts 291°
2026-05-07 10:16 40.74303 31.17664 31860 ft 422 kts 291°
2026-05-07 10:16 40.75199 31.13969 32244 ft 421 kts 291°
2026-05-07 10:16 40.76088 31.10296 32658 ft 420 kts 291°
2026-05-07 10:17 40.76975 31.06627 33021 ft 420 kts 291°
2026-05-07 10:17 40.77860 31.02956 33364 ft 419 kts 291°
2026-05-07 10:17 40.78732 30.99341 33690 ft 419 kts 291°
2026-05-07 10:17 40.79615 30.95671 33988 ft 420 kts 291°
2026-05-07 10:18 40.80496 30.92001 34283 ft 420 kts 291°
2026-05-07 10:18 40.81378 30.88323 34573 ft 419 kts 291°
2026-05-07 10:18 40.82256 30.84653 34818 ft 420 kts 291°
2026-05-07 10:18 40.83136 30.80976 35070 ft 420 kts 291°
2026-05-07 10:19 40.84013 30.77301 35320 ft 420 kts 291°
2026-05-07 10:19 40.84893 30.73609 35560 ft 421 kts 290°
2026-05-07 10:19 40.85772 30.69923 35798 ft 421 kts 290°
2026-05-07 10:19 40.86594 30.66214 36044 ft 422 kts 285°
2026-05-07 10:20 40.87249 30.62426 36275 ft 422 kts 286°
2026-05-07 10:20 40.87920 30.58655 36492 ft 422 kts 286°
2026-05-07 10:20 40.88600 30.54882 36716 ft 422 kts 286°
2026-05-07 10:20 40.89284 30.51111 36924 ft 422 kts 286°
2026-05-07 10:21 40.89966 30.47351 37157 ft 421 kts 286°
2026-05-07 10:21 40.90641 30.43626 37370 ft 421 kts 286°
2026-05-07 10:21 40.91323 30.39861 37569 ft 421 kts 286°
2026-05-07 10:21 40.92003 30.36093 37749 ft 421 kts 286°
2026-05-07 10:22 40.92669 30.32322 37951 ft 421 kts 285°
2026-05-07 10:22 40.93332 30.28551 38125 ft 421 kts 285°
2026-05-07 10:22 40.93998 30.24765 38137 ft 423 kts 285°
2026-05-07 10:23 40.95326 30.17189 38131 ft 424 kts 285°
2026-05-07 10:23 40.96652 30.09591 38133 ft 424 kts 285°
2026-05-07 10:24 40.97975 30.01989 38134 ft 424 kts 285°
2026-05-07 10:24 40.99278 29.94392 38133 ft 424 kts 285°
2026-05-07 10:25 41.00354 29.88063 38136 ft 423 kts 285°
2026-05-07 10:25 41.01519 29.81198 38141 ft 424 kts 285°
2026-05-07 10:26 41.02804 29.73592 38133 ft 423 kts 285°
2026-05-07 10:26 41.04085 29.65976 38131 ft 423 kts 285°
2026-05-07 10:27 41.05369 29.58357 38132 ft 423 kts 285°
2026-05-07 10:27 41.06636 29.50823 38132 ft 423 kts 285°
2026-05-07 10:28 41.07910 29.43205 38128 ft 423 kts 285°
2026-05-07 10:28 41.09180 29.35580 38135 ft 423 kts 285°
2026-05-07 10:29 41.10444 29.27955 38130 ft 423 kts 285°
2026-05-07 10:29 41.11704 29.20331 38137 ft 423 kts 285°
2026-05-07 10:30 41.13546 29.13027 38134 ft 415 kts 304°
2026-05-07 10:30 41.15074 29.09826 38115 ft 417 kts 303°
2026-05-07 10:30 41.18209 29.03356 38131 ft 418 kts 304°
2026-05-07 10:31 41.21410 28.96908 38134 ft 418 kts 304°
2026-05-07 10:31 41.24625 28.90461 38130 ft 418 kts 304°
2026-05-07 10:32 41.27840 28.84005 38133 ft 418 kts 304°
2026-05-07 10:32 41.31048 28.77552 38132 ft 418 kts 304°
2026-05-07 10:33 41.34251 28.71093 38133 ft 418 kts 304°
2026-05-07 10:33 41.37460 28.64609 38130 ft 419 kts 304°
2026-05-07 10:34 41.40660 28.58131 38133 ft 419 kts 304°
2026-05-07 10:34 41.43837 28.51686 38128 ft 419 kts 304°
2026-05-07 10:35 41.47029 28.45197 38135 ft 419 kts 304°
2026-05-07 10:35 41.50226 28.38684 38128 ft 419 kts 304°
2026-05-07 10:36 41.53418 28.32168 38134 ft 419 kts 304°
2026-05-07 10:36 41.56606 28.25648 38127 ft 419 kts 304°
2026-05-07 10:37 41.59791 28.19119 38134 ft 419 kts 304°
2026-05-07 10:37 41.62975 28.12578 38129 ft 420 kts 304°
2026-05-07 10:38 41.66137 28.06071 38131 ft 420 kts 304°
2026-05-07 10:38 41.69320 27.99504 38120 ft 420 kts 304°
2026-05-07 10:39 41.72495 27.92941 38123 ft 420 kts 304°
2026-05-07 10:39 41.75665 27.86371 38117 ft 420 kts 304°
2026-05-07 10:40 41.78835 27.79791 38123 ft 420 kts 304°
2026-05-07 10:40 41.82000 27.73204 38113 ft 420 kts 304°
2026-05-07 10:41 41.85158 27.66619 38114 ft 420 kts 304°
2026-05-07 10:41 41.88296 27.60060 38109 ft 420 kts 303°
2026-05-07 10:42 41.91449 27.53456 38109 ft 420 kts 303°
2026-05-07 10:42 41.94602 27.46837 38104 ft 420 kts 304°
2026-05-07 10:43 41.97752 27.40210 38107 ft 420 kts 303°
2026-05-07 10:43 42.00893 27.33588 38103 ft 420 kts 303°
2026-05-07 10:44 42.04036 27.26950 38108 ft 421 kts 303°
2026-05-07 10:44 42.07081 27.20213 38105 ft 421 kts 300°
2026-05-07 10:45 42.09911 27.13299 38107 ft 421 kts 300°
2026-05-07 10:45 42.12769 27.06390 38101 ft 422 kts 300°
2026-05-07 10:46 42.15607 26.99524 38104 ft 422 kts 300°
2026-05-07 10:46 42.18459 26.92610 38102 ft 423 kts 300°
2026-05-07 10:47 42.21312 26.85676 38104 ft 423 kts 300°
2026-05-07 10:47 42.24163 26.78731 38095 ft 423 kts 300°
2026-05-07 10:48 42.27009 26.71783 38099 ft 423 kts 300°
2026-05-07 10:48 42.29856 26.64814 38095 ft 423 kts 300°
2026-05-07 10:49 42.32694 26.57852 38101 ft 423 kts 300°
2026-05-07 10:49 42.35532 26.50872 38090 ft 424 kts 300°
2026-05-07 10:50 42.38369 26.43880 38095 ft 424 kts 300°
2026-05-07 10:50 42.41203 26.36875 38086 ft 424 kts 300°
2026-05-07 10:51 42.44028 26.29879 38096 ft 424 kts 300°
2026-05-07 10:51 42.46853 26.22863 38086 ft 424 kts 300°
2026-05-07 10:52 42.49658 26.15884 38092 ft 424 kts 300°
2026-05-07 10:52 42.52476 26.08851 38090 ft 424 kts 300°
2026-05-07 10:53 42.55283 26.01830 38086 ft 424 kts 300°
2026-05-07 10:53 42.58093 25.94786 38085 ft 424 kts 300°
2026-05-07 10:54 42.60897 25.87739 38080 ft 424 kts 300°
2026-05-07 10:54 42.63242 25.81831 38080 ft 424 kts 300°
2026-05-07 10:55 42.66011 25.74841 38082 ft 423 kts 300°
2026-05-07 10:55 42.68803 25.67773 38069 ft 423 kts 300°
2026-05-07 10:56 42.71586 25.60715 38077 ft 423 kts 300°
2026-05-07 10:56 42.74357 25.53667 38069 ft 422 kts 300°
2026-05-07 10:57 42.77123 25.46616 38070 ft 422 kts 300°
2026-05-07 10:57 42.79879 25.39572 38061 ft 422 kts 300°
2026-05-07 10:58 42.82630 25.32525 38066 ft 421 kts 300°
2026-05-07 10:58 42.85371 25.25483 38066 ft 421 kts 300°
2026-05-07 10:59 42.88108 25.18438 38064 ft 420 kts 300°
2026-05-07 10:59 42.90818 25.11441 38061 ft 420 kts 300°
2026-05-07 11:00 42.93543 25.04392 38059 ft 420 kts 300°
2026-05-07 11:00 42.96257 24.97352 38059 ft 419 kts 300°
2026-05-07 11:01 42.98966 24.90308 38062 ft 418 kts 300°
2026-05-07 11:01 43.01663 24.83279 38061 ft 418 kts 300°
2026-05-07 11:02 43.04360 24.76230 38061 ft 418 kts 299°
2026-05-07 11:02 43.07049 24.69188 38059 ft 418 kts 299°
2026-05-07 11:03 43.09717 24.62182 38049 ft 417 kts 299°
2026-05-07 11:03 43.12396 24.55129 38062 ft 417 kts 299°
2026-05-07 11:04 43.15069 24.48077 38055 ft 417 kts 299°
2026-05-07 11:04 43.17728 24.41041 38055 ft 416 kts 299°
2026-05-07 11:05 43.20383 24.33999 38055 ft 415 kts 299°
2026-05-07 11:05 43.23030 24.26958 38060 ft 415 kts 299°
2026-05-07 11:06 43.25667 24.19929 38058 ft 414 kts 299°
2026-05-07 11:06 43.28300 24.12894 38057 ft 414 kts 298°
2026-05-07 11:07 43.30908 24.05907 38056 ft 414 kts 298°
2026-05-07 11:07 43.33524 23.98879 38062 ft 413 kts 298°
2026-05-07 11:08 43.36138 23.91842 38062 ft 413 kts 298°
2026-05-07 11:08 43.38748 23.84797 38065 ft 413 kts 298°
2026-05-07 11:09 43.41353 23.77748 38067 ft 413 kts 298°
2026-05-07 11:09 43.43950 23.70702 38070 ft 414 kts 298°
2026-05-07 11:10 43.46546 23.63640 38068 ft 413 kts 297°
2026-05-07 11:10 43.49139 23.56571 38072 ft 414 kts 297°
2026-05-07 11:11 43.51731 23.49486 38071 ft 414 kts 297°
2026-05-07 11:11 43.54321 23.42389 38080 ft 415 kts 297°
2026-05-07 11:12 43.56906 23.35285 38080 ft 415 kts 297°
2026-05-07 11:12 43.59490 23.28167 38085 ft 415 kts 297°
2026-05-07 11:13 43.62075 23.21029 38062 ft 415 kts 296°
2026-05-07 11:13 43.64657 23.13878 38079 ft 416 kts 296°
2026-05-07 11:14 43.67235 23.06722 38083 ft 417 kts 296°
2026-05-07 11:14 43.69813 22.99547 38087 ft 417 kts 296°
2026-05-07 11:15 43.72388 22.92362 38087 ft 417 kts 296°
2026-05-07 11:15 43.74945 22.85210 38087 ft 418 kts 296°
2026-05-07 11:16 43.77520 22.77993 38078 ft 418 kts 296°
2026-05-07 11:16 43.80088 22.70777 38098 ft 418 kts 295°
2026-05-07 11:17 43.82654 22.63551 38098 ft 418 kts 295°
2026-05-07 11:17 43.85219 22.56306 38098 ft 419 kts 295°
2026-05-07 11:18 43.87782 22.49050 38086 ft 419 kts 295°
2026-05-07 11:18 43.90342 22.41783 38087 ft 419 kts 295°
2026-05-07 11:19 43.92968 22.34567 38095 ft 419 kts 296°
2026-05-07 11:19 43.95611 22.27361 38113 ft 419 kts 296°
2026-05-07 11:20 43.98255 22.20132 38105 ft 420 kts 295°
2026-05-07 11:20 44.00893 22.12901 38090 ft 420 kts 295°
2026-05-07 11:21 44.03525 22.05667 38103 ft 420 kts 295°
2026-05-07 11:21 44.06139 21.98464 38092 ft 420 kts 295°
2026-05-07 11:22 44.08760 21.91224 38085 ft 420 kts 295°
2026-05-07 11:22 44.11380 21.83964 38087 ft 420 kts 295°
2026-05-07 11:23 44.14000 21.76691 38079 ft 420 kts 295°
2026-05-07 11:23 44.16614 21.69411 38075 ft 420 kts 295°
2026-05-07 11:24 44.17915 21.65781 37709 ft 419 kts 295°
2026-05-07 11:24 44.19212 21.62154 37163 ft 418 kts 294°
2026-05-07 11:24 44.20510 21.58524 36534 ft 419 kts 294°
2026-05-07 11:24 44.21809 21.54885 35890 ft 420 kts 294°
2026-05-07 11:25 44.23117 21.51217 35250 ft 423 kts 294°
2026-05-07 11:25 44.24426 21.47536 34598 ft 425 kts 294°
2026-05-07 11:25 44.25744 21.43830 33923 ft 428 kts 294°
2026-05-07 11:25 44.27051 21.40148 33154 ft 430 kts 294°
2026-05-07 11:26 44.28380 21.36399 32462 ft 432 kts 294°
2026-05-07 11:26 44.29731 21.32587 31757 ft 434 kts 294°
2026-05-07 11:26 44.31051 21.28856 31047 ft 436 kts 293°
2026-05-07 11:26 44.32405 21.25065 30282 ft 438 kts 295°
2026-05-07 11:27 44.33835 21.21272 29239 ft 443 kts 295°
2026-05-07 11:27 44.35268 21.17456 28532 ft 441 kts 295°
2026-05-07 11:27 44.36685 21.13665 27786 ft 439 kts 295°
2026-05-07 11:27 44.38092 21.09894 26956 ft 439 kts 295°
2026-05-07 11:28 44.39521 21.06059 26058 ft 447 kts 295°
2026-05-07 11:28 44.40966 21.02173 25161 ft 450 kts 295°
2026-05-07 11:28 44.42415 20.98273 24230 ft 453 kts 295°
2026-05-07 11:28 44.43872 20.94343 23167 ft 458 kts 295°
2026-05-07 11:29 44.45338 20.90386 22430 ft 454 kts 295°
2026-05-07 11:29 44.46770 20.86513 21784 ft 444 kts 295°
2026-05-07 11:29 44.48219 20.82590 20407 ft 456 kts 296°
2026-05-07 11:29 44.49647 20.78717 19605 ft 439 kts 295°
2026-05-07 11:30 44.50999 20.75045 18872 ft 423 kts 295°
2026-05-07 11:30 44.52357 20.71360 17931 ft 425 kts 296°
2026-05-07 11:30 44.53576 20.68059 17422 ft 419 kts 297°
2026-05-07 11:30 44.55115 20.64612 16743 ft 416 kts 301°
2026-05-07 11:31 44.56668 20.61211 16096 ft 412 kts 301°
2026-05-07 11:31 44.58183 20.57847 15661 ft 404 kts 300°
2026-05-07 11:31 44.59649 20.54562 15394 ft 392 kts 300°
2026-05-07 11:31 44.61070 20.51366 15193 ft 379 kts 300°
2026-05-07 11:32 44.63766 20.45284 14908 ft 353 kts 300°
2026-05-07 11:32 44.65039 20.42407 14803 ft 341 kts 300°
2026-05-07 11:32 44.66266 20.39634 14714 ft 328 kts 300°
2026-05-07 11:33 44.67445 20.36963 14653 ft 315 kts 300°
2026-05-07 11:33 44.68578 20.34398 14580 ft 302 kts 300°
2026-05-07 11:33 44.69664 20.31936 14459 ft 293 kts 299°
2026-05-07 11:33 44.70739 20.29494 14059 ft 294 kts 300°
2026-05-07 11:34 44.71816 20.27046 13693 ft 293 kts 300°
2026-05-07 11:34 44.72869 20.24653 13328 ft 292 kts 299°
2026-05-07 11:34 44.73933 20.22234 12990 ft 289 kts 299°
2026-05-07 11:34 44.74985 20.19839 12601 ft 288 kts 299°
2026-05-07 11:35 44.76034 20.17450 12255 ft 285 kts 299°
2026-05-07 11:35 44.77083 20.15073 11876 ft 285 kts 299°
2026-05-07 11:35 44.78125 20.12714 11566 ft 282 kts 299°
2026-05-07 11:35 44.79155 20.10382 11196 ft 281 kts 299°
2026-05-07 11:36 44.80180 20.08059 10880 ft 278 kts 299°
2026-05-07 11:36 44.81198 20.05749 10527 ft 277 kts 299°
2026-05-07 11:36 44.82212 20.03446 10173 ft 276 kts 299°
2026-05-07 11:36 44.83220 20.01156 9830 ft 273 kts 299°
2026-05-07 11:37 44.84219 19.98883 9428 ft 273 kts 299°
2026-05-07 11:37 44.85213 19.96619 9082 ft 270 kts 299°
2026-05-07 11:37 44.86201 19.94368 8662 ft 270 kts 300°
2026-05-07 11:37 44.87183 19.92130 8339 ft 267 kts 299°
2026-05-07 11:38 44.88165 19.89889 7929 ft 267 kts 299°
2026-05-07 11:38 44.89123 19.87704 7580 ft 266 kts 300°
2026-05-07 11:38 44.90098 19.85479 7206 ft 266 kts 299°
2026-05-07 11:38 44.91065 19.83267 6955 ft 261 kts 299°
2026-05-07 11:39 44.92006 19.81115 6698 ft 256 kts 300°
2026-05-07 11:39 44.92929 19.78998 6462 ft 251 kts 299°
2026-05-07 11:39 44.93844 19.76902 6288 ft 251 kts 299°
2026-05-07 11:39 44.94757 19.74806 6164 ft 252 kts 299°
2026-05-07 11:40 44.95677 19.72703 6041 ft 251 kts 301°
2026-05-07 11:40 44.96925 19.70992 5904 ft 254 kts 331°
2026-05-07 11:40 44.98635 19.70418 5805 ft 258 kts
2026-05-07 11:40 44.99815 19.70669 5712 ft 260 kts 18°
2026-05-07 11:41 45.01380 19.71920 5607 ft 260 kts 44°
2026-05-07 11:41 45.02642 19.74734 5479 ft 257 kts 74°
2026-05-07 11:41 45.03132 19.77172 5393 ft 258 kts 77°
2026-05-07 11:41 45.03434 19.79649 5267 ft 254 kts 95°
2026-05-07 11:42 45.03227 19.81264 5186 ft 249 kts 112°
2026-05-07 11:42 45.02448 19.83462 5086 ft 248 kts 122°
2026-05-07 11:42 45.01606 19.85595 5005 ft 249 kts 122°
2026-05-07 11:42 45.00765 19.87712 4887 ft 244 kts 122°
2026-05-07 11:43 44.99967 19.89697 4860 ft 230 kts 123°
2026-05-07 11:43 44.99159 19.91617 4735 ft 220 kts 124°
2026-05-07 11:43 44.98379 19.93417 4638 ft 210 kts 125°
2026-05-07 11:43 44.97643 19.95105 4555 ft 194 kts 125°
2026-05-07 11:44 44.96952 19.96683 4468 ft 186 kts 125°
2026-05-07 11:44 44.96265 19.98240 4410 ft 187 kts 126°
2026-05-07 11:44 44.95576 19.99805 4352 ft 188 kts 125°
2026-05-07 11:44 44.94887 20.01372 4246 ft 188 kts 125°
2026-05-07 11:45 44.94199 20.02938 4133 ft 187 kts 125°
2026-05-07 11:45 44.93528 20.04460 4079 ft 186 kts 125°
2026-05-07 11:45 44.92852 20.05995 3991 ft 186 kts 124°
2026-05-07 11:45 44.92182 20.07518 3813 ft 173 kts 125°
2026-05-07 11:46 44.91562 20.08925 3600 ft 168 kts 125°
2026-05-07 11:46 44.90948 20.10314 3429 ft 167 kts 125°
2026-05-07 11:46 44.90336 20.11700 3207 ft 166 kts 125°
2026-05-07 11:46 44.89728 20.13087 2990 ft 166 kts 125°
2026-05-07 11:47 44.89121 20.14463 2774 ft 164 kts 126°
2026-05-07 11:47 44.88516 20.15827 2538 ft 164 kts 125°
2026-05-07 11:47 44.87916 20.17187 2336 ft 162 kts 126°
2026-05-07 11:47 44.87317 20.18538 2125 ft 161 kts 125°
2026-05-07 11:48 44.86756 20.19823 1910 ft 147 kts 126°
2026-05-07 11:48 44.86223 20.21027 1726 ft 144 kts 126°
2026-05-07 11:48 44.85698 20.22229 1500 ft 145 kts 126°
2026-05-07 11:48 44.85158 20.23435 1320 ft 146 kts 127°
2026-05-07 11:49 44.84649 20.24583 1189 ft 143 kts 128°
2026-05-07 11:49 44.84116 20.25786 943 ft 144 kts 128°
2026-05-07 11:49 44.83584 20.26990 709 ft 144 kts 123°
2026-05-07 11:49 44.83053 20.28219 459 ft 148 kts 123°
2026-05-07 11:50 44.82497 20.29456 324 ft 151 kts 120°
2026-05-07 11:50 44.81991 20.30596 309 ft 111 kts 123°
2026-05-07 11:50 44.81681 20.31242 311 ft 34 kts 143°
2026-05-07 11:50 44.81511 20.31382 308 ft 29 kts 152°
2026-05-07 11:51 44.81344 20.31447 308 ft 20 kts 212°
2026-05-07 11:51 44.81358 20.31299 308 ft 18 kts 302°
2026-05-07 11:51 44.81429 20.31146 308 ft 20 kts 302°
2026-05-07 11:51 44.81489 20.30999 309 ft 18 kts 301°
2026-05-07 11:52 44.81558 20.30841 310 ft 20 kts 301°
2026-05-07 11:52 44.81632 20.30670 310 ft 21 kts 304°
2026-05-07 11:52 44.81717 20.30489 310 ft 23 kts 302°
2026-05-07 11:52 44.81806 20.30291 309 ft 25 kts 303°
2026-05-07 11:53 44.81901 20.30077 309 ft 27 kts 302°
2026-05-07 11:53 44.82000 20.29848 309 ft 28 kts 302°
2026-05-07 11:53 44.82092 20.29642 311 ft 14 kts 302°
2026-05-07 11:53 44.82088 20.29521 311 ft 14 kts 218°
2026-05-07 11:54 44.82057 20.29490 311 ft 1 kts 213°
2026-05-07 11:54 44.82040 20.29474 311 ft 4 kts 213°
2026-05-07 11:54 44.82024 20.29439 309 ft 2 kts 278°
2026-05-07 11:54 44.82030 20.29429 312 ft 2 kts 306°
2026-05-07 11:55 44.82042 20.29403 311 ft 4 kts 304°
2026-05-07 11:55 44.82053 20.29379 311 ft 0 kts 303°